カタログに戻る

COSMOS 409

運用中軍事LEO
NORAD 5180·PAYLOAD·🇷🇺 Russia

打ち上げ Apr 28, 1971 から Plesetsk Cosmodrome

Loading…

次のパス (今後24時間)

TLE

最新Source: Space-Track

元期: Sep 14, 2026, 08:44 UTC

1 05180U 71038A   26257.36400196  .00000203  00000-0  56857-3 0  9993
2 05180  73.9989 239.2211 0021997 112.3361  40.7911 13.17846976663993

AllMySatでCOSMOS 409をリアルタイム追跡

Download on the App Store